{"data":{"norad_id":57410,"intl_designator":"2023-102G","name":"STARLINK-30172","alt_names":[],"object_type":"PAYLOAD","status":"ACTIVE","operator":null,"country":"US","launch_date":"2023-07-20","launch_site_code":"AFWTR","launch_vehicle":null,"mission":null,"orbit_class":"UNKNOWN","rcs_meters":null,"size_class":null,"mass_kg":null,"dimensions":null,"purposes":["comms"],"wikipedia_slug":null,"has_3d_model":false,"image_url":null,"decayed_at":null,"tle_current":{"epoch":"2026-05-25T01:45:13.692096Z","epoch_age_seconds":72757,"freshness":"FRESH","line1":"1 57410U 23102G   26145.07307514 -.00006789  00000+0 -23733-3 0  9992","line2":"2 57410  43.0032 177.8955 0001069 279.2104  80.8626 15.27591147157919","mean_motion":15.27591147,"eccentricity":0.0001069,"inclination_deg":43.0032,"raan_deg":177.8955,"arg_perigee_deg":279.2104,"mean_anomaly_deg":80.8626,"bstar":-0.00023733,"rev_number":15791,"period_min":94.266060838856,"perigee_km":482.28226088894,"apogee_km":483.74917534008,"semimajor_km":6861.1527181145,"source":"CELESTRAK","updated_at":"2026-05-25T13:38:18.315099Z"}}}